Location: Forestville
(38.4740°N, 122.8890°W)
Time: 14:00:46
(UTC-07:00)

Amateur Radio Satellites - All Passes

Search period start: 01 September 2014 13:30
Search period end: 02 September 2014 13:30
Location: Forestville, 38.4740°N, 122.8890°W

Satellite Date Start Highest point End Downlink Frequencies (MHz)
Time Altitude Azimuth
UOSAT-12 01 Sep 13:34:26 13:38:17 24° 48° (NE) 13:42:06 437.025 FM, 437.400 FM
Oscar 16 01 Sep 13:43:22 13:48:28 65° 74° (ENE) 13:53:36 437.025 USB, Beacon 2401.1428
PANSAT 01 Sep 13:44:41 13:47:21 18° 185° (S) 13:50:00 not established
ITAMSAT 1 01 Sep 13:45:44 13:50:06 29° 67° (ENE) 13:54:29 435.822 SSB
Uribyol 2 01 Sep 13:54:48 13:59:30 37° 69° (ENE) 14:04:12 436.500 FM
RS-15 01 Sep 13:55:26 14:02:34 19° 18° (NNE) 14:09:48 29.354 - 29.394 USB, Beacon 29.352 USB
TMSAT-1 01 Sep 14:06:37 14:09:31 15° 62° (ENE) 14:12:25 436.925 FM
AO-27 01 Sep 14:14:30 14:19:31 55° 72° (ENE) 14:24:34 436.795 MHz FM
JAS-1B 01 Sep 14:36:14 14:46:04 83° 74° (ENE) 14:54:52 435.800 - 435.900 CW/SSB
AO-7 01 Sep 14:38:27 14:43:13 17° 51° (NE) 14:47:58 29.400 - 29.500 MHz
Oscar 19 01 Sep 14:48:03 14:52:37 32° 263° (W) 14:57:13 437.125 CW, 437.150 USB
Gurwin Techsat 1B 01 Sep 14:53:25 14:58:35 56° 73° (ENE) 15:03:47 435.225 FM
AO-Echo 01 Sep 14:59:34 15:04:26 49° 260° (W) 15:09:11 ?
MaSat-1 01 Sep 15:03:24 15:05:37 13° 313° (NW) 15:07:52 437.345 MHz
UOSAT-12 01 Sep 15:14:10 15:18:35 40° 245° (WSW) 15:22:55 437.025 FM, 437.400 FM
ITAMSAT 1 01 Sep 15:24:53 15:29:28 32° 263° (W) 15:34:05 435.822 SSB
Oscar 16 01 Sep 15:25:42 15:28:14 14° 269° (W) 15:30:47 437.025 USB, Beacon 2401.1428
PANSAT 01 Sep 15:26:09 15:26:50 10° 197° (SSW) 15:27:32 not established
Uribyol 2 01 Sep 15:34:52 15:39:01 24° 265° (W) 15:43:12 436.500 FM
ISS 01 Sep 15:35:44 15:38:05 18° 23° (NNE) 15:40:26 145.800 FM
TMSAT-1 01 Sep 15:43:35 15:48:50 68° 258° (WSW) 15:54:07 436.925 FM
Uosat F 01 Sep 15:52:23 15:56:35 28° 67° (ENE) 16:00:47 435.120 FM
AO-27 01 Sep 15:56:10 15:59:21 16° 268° (W) 16:02:33 436.795 MHz FM
Sapphire 01 Sep 15:58:54 16:03:01 23° 106° (ESE) 16:07:09 437.095 MHz 1200 baud AX-25 AFSK
RS-15 01 Sep 16:07:59 16:18:38 49° 49° (NE) 16:29:37 29.354 - 29.394 USB, Beacon 29.352 USB
AO-7 01 Sep 16:26:21 16:34:39 77° 70° (ENE) 16:42:59 29.400 - 29.500 MHz
PCSat 01 Sep 16:26:57 16:32:03 45° 111° (ESE) 16:37:11 145.825 MHz
JAS-1B 01 Sep 16:29:58 16:37:03 23° 268° (W) 16:43:44 435.800 - 435.900 CW/SSB
Gurwin Techsat 1B 01 Sep 16:35:35 16:38:53 17° 268° (W) 16:42:12 435.225 FM
ISS 01 Sep 17:11:49 17:15:09 75° 221° (SW) 17:18:28 145.800 FM
Hamsat 01 Sep 17:16:10 17:18:46 16° 66° (ENE) 17:21:23 145.90 MHz
OPAL 01 Sep 17:22:08 17:27:06 43° 101° (E) 17:32:00 ?
Uosat F 01 Sep 17:30:49 17:35:15 31° 263° (W) 17:39:42 435.120 FM
Sapphire 01 Sep 17:40:55 17:46:06 46° 303° (WNW) 17:51:19 437.095 MHz 1200 baud AX-25 AFSK
JAS-2 01 Sep 18:06:51 18:12:53 61° 74° (ENE) 18:18:18 435.800 - 435.900 CW/SSB, 435.910 FM
PCSat 01 Sep 18:11:10 18:15:38 26° 309° (NW) 18:20:08 145.825 MHz
RS-15 01 Sep 18:20:30 18:31:01 50° 250° (WSW) 18:41:57 29.354 - 29.394 USB, Beacon 29.352 USB
AO-7 01 Sep 18:22:15 18:28:08 21° 267° (W) 18:34:04 29.400 - 29.500 MHz
Hamsat 01 Sep 18:50:13 18:54:20 44° 262° (W) 18:58:30 145.90 MHz
OPAL 01 Sep 19:01:38 19:05:40 23° 297° (WNW) 19:09:42 ?
STRAND 1 01 Sep 19:09:53 19:13:58 24° 95° (E) 19:18:01 ?
HO-68 01 Sep 19:40:54 19:45:06 17° 56° (NE) 19:49:18 435.675 MHz FM
SO-67 01 Sep 19:48:11 19:51:36 60° 260° (W) 19:55:03 435.3500 MHz FM
JAS-2 01 Sep 19:54:31 19:58:14 17° 266° (W) 20:01:45 435.800 - 435.900 CW/SSB, 435.910 FM
UKube-1 01 Sep 20:48:16 20:51:04 17° 66° (ENE) 20:53:53 145.840 MHz, 145.915 MHz
STRAND 1 01 Sep 20:48:33 20:53:13 37° 290° (WNW) 20:57:53 ?
Oscar 11 01 Sep 20:53:25 20:54:55 12° 63° (ENE) 20:56:25 145.825 FM, Beacon 2401.500 USB
Saudisat 1A 01 Sep 21:20:18 21:22:44 15° 109° (ESE) 21:25:11 436.775 MHz
HO-68 01 Sep 21:24:40 21:31:49 89° 74° (ENE) 21:39:00 435.675 MHz FM
MaSat-1 01 Sep 21:43:24 21:46:11 16° 50° (NE) 21:48:46 437.345 MHz
KITSAT 1 01 Sep 22:17:43 22:24:06 26° 105° (ESE) 22:30:28 435.175 FM
UKube-1 01 Sep 22:22:51 22:26:56 40° 261° (W) 22:31:03 145.840 MHz, 145.915 MHz
Oscar 11 01 Sep 22:26:15 22:30:32 62° 259° (W) 22:34:52 145.825 FM, Beacon 2401.500 USB
Saudisat 1A 01 Sep 22:57:34 23:01:52 52° 305° (NW) 23:06:12 436.775 MHz
FUNcube-1 01 Sep 22:58:28 23:02:37 73° 258° (WSW) 23:06:54 145.950 - 145.970 MHz USB
HO-68 01 Sep 23:16:46 23:20:20 14° 270° (W) 23:23:55 435.675 MHz FM
MaSat-1 01 Sep 23:19:21 23:23:36 48° 251° (WSW) 23:27:14 437.345 MHz
AO-40 01 Sep 23:20:14 02:03:01 23° 120° (ESE) 03:18:41 Beacon 2401.320
Oscar 10/S400 01 Sep 23:59:48 00:38:25 64° 195° (SSW) 09:49:42 145.825 - 145.975 CW/USB, Beacon 145.810 USB
KITSAT 1 02 Sep 00:10:50 00:18:51 65° 303° (WNW) 00:26:54 435.175 FM
Sapphire 02 Sep 00:48:04 00:51:26 16° 45° (NE) 00:54:47 437.095 MHz 1200 baud AX-25 AFSK
PCSat 02 Sep 01:16:28 01:21:07 28° 52° (NE) 01:25:43 145.825 MHz
Oscar 19 02 Sep 01:24:31 01:25:43 11° 89° (E) 01:26:56 437.125 CW, 437.150 USB
Oscar 16 02 Sep 01:57:11 02:01:29 26° 95° (E) 02:05:45 437.025 USB, Beacon 2401.1428
ITAMSAT 1 02 Sep 02:02:40 02:03:38 11° 90° (E) 02:04:36 435.822 SSB
Uribyol 2 02 Sep 02:10:20 02:13:08 15° 92° (E) 02:15:55 436.500 FM
KITSAT 1 02 Sep 02:10:56 02:15:58 17° 326° (NW) 02:21:01 435.175 FM
JAS-1B 02 Sep 02:27:07 02:31:40 20° 90° (E) 02:35:52 435.800 - 435.900 CW/SSB
AO-27 02 Sep 02:29:45 02:33:43 22° 94° (E) 02:37:41 436.795 MHz FM
Sapphire 02 Sep 02:30:04 02:35:31 80° 244° (WSW) 02:40:55 437.095 MHz 1200 baud AX-25 AFSK
PCSat 02 Sep 02:59:34 03:04:37 40° 249° (WSW) 03:09:38 145.825 MHz
Oscar 19 02 Sep 03:00:25 03:05:38 80° 285° (WNW) 03:10:48 437.125 CW, 437.150 USB
AO-Echo 02 Sep 03:08:02 03:12:41 58° 101° (E) 03:17:21 ?
Gurwin Techsat 1B 02 Sep 03:11:42 03:16:03 25° 95° (E) 03:20:22 435.225 FM
Oscar 16 02 Sep 03:36:09 03:40:51 35° 291° (WNW) 03:45:32 437.025 USB, Beacon 2401.1428
SO-50 02 Sep 03:38:22 03:42:49 87° 301° (WNW) 03:47:24 436.795 FM
ITAMSAT 1 02 Sep 03:38:29 03:43:41 81° 285° (WNW) 03:48:53 435.822 SSB
Uribyol 2 02 Sep 03:47:51 03:52:59 62° 287° (WNW) 03:58:07 436.500 FM
TMSAT-1 02 Sep 04:00:57 04:06:09 55° 100° (E) 04:11:19 436.925 FM
AO-27 02 Sep 04:08:31 04:13:22 41° 290° (WNW) 04:18:12 436.795 MHz FM
JAS-1B 02 Sep 04:16:33 04:22:53 51° 291° (WNW) 04:28:27 435.800 - 435.900 CW/SSB
AO-7 02 Sep 04:30:32 04:37:17 27° 95° (E) 04:44:00 29.400 - 29.500 MHz
OPAL 02 Sep 04:35:33 04:40:33 65° 71° (ENE) 04:45:40 ?
AO-Echo 02 Sep 04:48:33 04:50:58 14° 296° (WNW) 04:53:24 ?
Gurwin Techsat 1B 02 Sep 04:51:12 04:56:04 37° 290° (WNW) 05:00:54 435.225 FM
SO-50 02 Sep 05:22:15 05:24:06 12° 320° (NW) 05:25:58 436.795 FM
UOSAT-12 02 Sep 05:23:22 05:27:58 86° 120° (ESE) 05:32:41 437.025 FM, 437.400 FM
Uosat F 02 Sep 05:39:14 05:44:16 88° 105° (ESE) 05:49:16 435.120 FM
TMSAT-1 02 Sep 05:42:04 05:45:36 19° 296° (WNW) 05:49:08 436.925 FM
Saudisat 1A 02 Sep 05:48:28 05:49:38 11° 40° (NE) 05:50:47 436.775 MHz
KITSAT 1 02 Sep 06:12:01 06:15:53 14° 29° (NNE) 06:19:45 435.175 FM
OPAL 02 Sep 06:17:23 06:19:52 14° 267° (W) 06:22:23 ?
AO-7 02 Sep 06:22:22 06:30:30 62° 293° (WNW) 06:38:35 29.400 - 29.500 MHz
STRAND 1 02 Sep 06:24:27 06:28:51 30° 68° (ENE) 06:33:15 ?
RS-15 02 Sep 06:31:23 06:40:39 32° 105° (ESE) 06:49:43 29.354 - 29.394 USB, Beacon 29.352 USB
Hamsat 02 Sep 06:37:29 06:41:29 35° 97° (E) 06:45:25 145.90 MHz
JAS-2 02 Sep 07:01:22 07:06:39 60° 101° (ESE) 07:12:24 435.800 - 435.900 CW/SSB, 435.910 FM
UOSAT-12 02 Sep 07:06:22 07:08:46 14° 319° (NW) 07:11:11 437.025 FM, 437.400 FM
Uosat F 02 Sep 07:21:16 07:22:17 11° 300° (WNW) 07:23:17 435.120 FM
Saudisat 1A 02 Sep 07:25:31 07:29:57 79° 58° (ENE) 07:34:20 436.775 MHz
STRAND 1 02 Sep 08:03:34 08:07:58 29° 264° (W) 08:12:24 ?
KITSAT 1 02 Sep 08:05:43 08:13:31 50° 54° (NE) 08:21:16 435.175 FM
Hamsat 02 Sep 08:14:08 08:17:10 19° 293° (WNW) 08:20:10 145.90 MHz
AO-7 02 Sep 08:18:18 08:21:37 13° 313° (NW) 08:24:57 29.400 - 29.500 MHz
RS-15 02 Sep 08:41:08 08:52:09 67° 305° (NW) 09:03:02 29.354 - 29.394 USB, Beacon 29.352 USB
SO-67 02 Sep 08:46:22 08:49:38 39° 286° (WNW) 08:52:51 435.3500 MHz FM
JAS-2 02 Sep 08:48:05 08:51:22 17° 296° (WNW) 08:54:48 435.800 - 435.900 CW/SSB, 435.910 FM
HO-68 02 Sep 08:55:47 09:00:19 18° 92° (E) 09:04:50 435.675 MHz FM
ISS 02 Sep 09:53:05 09:56:24 81° 140° (SE) 09:59:44 145.800 FM
KITSAT 1 02 Sep 10:01:30 10:08:39 36° 252° (WSW) 10:15:47 435.175 FM
UKube-1 02 Sep 10:12:28 10:16:28 35° 98° (E) 10:20:27 145.840 MHz, 145.915 MHz
Oscar 11 02 Sep 10:15:49 10:19:29 26° 96° (E) 10:23:07 145.825 FM, Beacon 2401.500 USB
HO-68 02 Sep 10:41:30 10:48:40 78° 288° (WNW) 10:55:48 435.675 MHz FM
FUNcube-1 02 Sep 10:49:17 10:53:04 25° 95° (E) 10:56:52 145.950 - 145.970 MHz USB
RS-15 02 Sep 10:58:59 11:07:05 23° 333° (NNW) 11:15:13 29.354 - 29.394 USB, Beacon 29.352 USB
ISS 02 Sep 11:31:13 11:33:30 17° 337° (NNW) 11:35:46 145.800 FM
PANSAT 02 Sep 11:40:10 11:42:40 17° 172° (S) 11:45:11 not established
UKube-1 02 Sep 11:49:21 11:52:24 19° 294° (WNW) 11:55:28 145.840 MHz, 145.915 MHz
Oscar 11 02 Sep 11:51:58 11:55:34 26° 291° (WNW) 11:59:09 145.825 FM, Beacon 2401.500 USB
SO-50 02 Sep 12:11:15 12:15:59 56° 56° (NE) 12:20:45 436.795 FM
FUNcube-1 02 Sep 12:25:28 12:29:24 29° 290° (WNW) 12:33:22 145.950 - 145.970 MHz USB
HO-68 02 Sep 12:31:44 12:35:12 14° 306° (NW) 12:38:40 435.675 MHz FM
Oscar 19 02 Sep 12:39:15 12:42:11 15° 62° (ENE) 12:45:07 437.125 CW, 437.150 USB
MaSat-1 02 Sep 13:04:15 13:09:09 88° 113° (ESE) 13:14:20 437.345 MHz
JAS-1B 02 Sep 13:08:01 13:15:21 26° 61° (ENE) 13:22:02 435.800 - 435.900 CW/SSB
Oscar 16 02 Sep 13:12:43 13:17:16 33° 69° (ENE) 13:21:52 437.025 USB, Beacon 2401.1428
ITAMSAT 1 02 Sep 13:18:19 13:21:20 16° 62° (ENE) 13:24:21 435.822 SSB
PANSAT 02 Sep 13:19:36 13:22:15 18° 185° (S) 13:24:53 not established
